QPF
0.06 0.06 0.04 0.04 0.04 0.03 0.03 0.03 0.03 0.01 0.00 0.01 0.02 0.03 0.05 0.06 0.06 0.06 0.07 0.08 0.06 0.05 0.05 0.06 0.05 0.05 0.05 0.04 0.04 0.04 0.04 0.03 0.02 0.01 0.02 0.03 0.04 0.05 0.08 0.09 0.09 0.09 0.09
0.05 0.04 0.04 0.05 0.04 0.03 0.02 0.02 0.01 0.01 0.01 0.01 0.01 0.03 0.04 0.03 0.03 0.04 0.04 0.05 0.06 0.07 0.08 0.08 0.07 0.05 0.05 0.06 0.05 0.04 0.04 0.04 0.04 0.03 0.02 0.02 0.03 0.05 0.09 0.09 0.08 0.10 0.08
0.05 0.05 0.05 0.04 0.04 0.03 0.02 0.01 0.02 0.02 0.01 0.01 0.01 0.01 0.02 0.03 0.03 0.03 0.03 0.04 0.05 0.07 0.10 0.10 0.05 0.04 0.05 0.06 0.05 0.04 0.03 0.04 0.04 0.04 0.02 0.02 0.02 0.04 0.06 0.06 0.05 0.05 0.04
0.04 0.03 0.03 0.02 0.02 0.03 0.03 0.02 0.02 0.02 0.02 0.02 0.01 0.01 0.02 0.03 0.03 0.03 0.03 0.03 0.04 0.05 0.05 0.03 0.02 0.02 0.03 0.04 0.05 0.05 0.04 0.04 0.04 0.03 0.02 0.02 0.02 0.03 0.04 0.05 0.05 0.04 0.03
0.02 0.02 0.01 0.01 0.02 0.03 0.04 0.03 0.03 0.02 0.02 0.02 0.03 0.03 0.03 0.03 0.03 0.03 0.03 0.03 0.03 0.03 0.02 0.01 0.01 0.01 0.02 0.02 0.02 0.02 0.02 0.03 0.04 0.04 0.04 0.03 0.02 0.02 0.03 0.05 0.05 0.03 0.02
0.02 0.02 0.01 0.01 0.01 0.01 0.02 0.03 0.03 0.03 0.03 0.04 0.04 0.05 0.04 0.04 0.03 0.04 0.03 0.02 0.02 0.01 0.01 0.01 0.01 0.02 0.02 0.02 0.02 0.02 0.01 0.02 0.02 0.02 0.02 0.01 0.01 0.01 0.02 0.03 0.04 0.03 0.02
0.01 0.02 0.01 0.01 0.01 0.01 0.01 0.02 0.03 0.03 0.03 0.04 0.05 0.05 0.05 0.05 0.05 0.04 0.03 0.02 0.01 0.01 0.01 0.01 0.02 0.02 0.02 0.01 0.01 0.01 0.02 0.02 0.02 0.02 0.02 0.02 0.01 0.01 0.02 0.02 0.03 0.03 0.02
0.01 0.01 0.01 0.01 0.01 0.01 0.01 0.01 0.01 0.01 0.02 0.02 0.03 0.04 0.04 0.05 0.05 0.04 0.02 0.01 0.01 0.01 0.01 0.01 0.03 0.03 0.02 0.01 0.01 0.02 0.02 0.02 0.02 0.03 0.03 0.03 0.03 0.03 0.03 0.03 0.03 0.03 0.04
0.01 0.01 0.01 0.01 0.01 0.02 0.01 0.01 0.01 0.01 0.01 0.01 0.01 0.02 0.03 0.03 0.03 0.03 0.02 0.01 0.01 0.01 0.01 0.02 0.03 0.02 0.01 0.01 0.01 0.02 0.02 0.02 0.03 0.04 0.04 0.04 0.04 0.04 0.03 0.04 0.06 0.06 0.06
0.01 0.01 0.02 0.01 0.01 0.02 0.02 0.01 0.01 0.01 0.01 0.01 0.02 0.02 0.02 0.02 0.02 0.02 0.01 0.00 0.00 0.01 0.01 0.02 0.02 0.01 0.00 0.00 0.01 0.02 0.02 0.03 0.03 0.03 0.04 0.05 0.04 0.03 0.04 0.04 0.05 0.08 0.07
0.03 0.03 0.04 0.02 0.02 0.03 0.03 0.03 0.03 0.02 0.02 0.02 0.02 0.02 0.02 0.02 0.01 0.01 0.01 0.00 0.00 0.01 0.02 0.01 0.01 0.01 0.01 0.00 0.01 0.01 0.02 0.02 0.03 0.04 0.05 0.05 0.04 0.03 0.04 0.05 0.05 0.06 0.07
0.03 0.04 0.05 0.05 0.04 0.04 0.04 0.04 0.04 0.04 0.03 0.02 0.02 0.01 0.01 0.01 0.01 0.01 0.01 0.01 0.01 0.01 0.02 0.01 0.01 0.01 0.01 0.01 0.01 0.01 0.01 0.02 0.02 0.03 0.03 0.04 0.05 0.04 0.03 0.05 0.05 0.05 0.05
0.03 0.04 0.04 0.04 0.06 0.07 0.06 0.04 0.04 0.04 0.04 0.03 0.01 0.01 0.01 0.01 0.01 0.01 0.01 0.01 0.01 0.01 0.01 0.01 0.01 0.00 0.00 0.01 0.01 0.01 0.01 0.01 0.01 0.03 0.03 0.03 0.05 0.05 0.04 0.04 0.06 0.06 0.07
0.03 0.03 0.03 0.04 0.06 0.08 0.08 0.05 0.03 0.03 0.02 0.02 0.01 0.01 0.01 0.01 0.02 0.02 0.02 0.02 0.01 0.01 0.01 0.01 0.01 0.01 0.00 0.00 0.01 0.01 0.01 0.01 0.01 0.02 0.02 0.02 0.04 0.04 0.04 0.03 0.04 0.05 0.07
0.03 0.02 0.03 0.04 0.03 0.05 0.06 0.05 0.05 0.03 0.03 0.02 0.01 0.01 0.02 0.02 0.02 0.02 0.02 0.02 0.01 0.01 0.00 0.00 0.00 0.00 0.00 0.00 0.01 0.01 0.01 0.01 0.00 0.01 0.01 0.01 0.03 0.04 0.05 0.05 0.05 0.04 0.04
0.02 0.02 0.02 0.04 0.03 0.03 0.03 0.04 0.05 0.04 0.03 0.02 0.02 0.02 0.04 0.03 0.02 0.01 0.01 0.01 0.01 0.01 0.01 0.00 0.00 0.00 0.00 0.00 0.01 0.01 0.01 0.01 0.01 0.01 0.01 0.01 0.02 0.02 0.03 0.04 0.06 0.05 0.04
0.02 0.02 0.02 0.03 0.04 0.02 0.01 0.02 0.02 0.02 0.02 0.02 0.01 0.02 0.03 0.03 0.02 0.02 0.01 0.01 0.01 0.02 0.01 0.01 0.01 0.00 0.01 0.01 0.01 0.01 0.01 0.01 0.02 0.01 0.01 0.01 0.02 0.02 0.02 0.03 0.04 0.04 0.05
0.03 0.03 0.02 0.02 0.03 0.02 0.01 0.01 0.01 0.01 0.02 0.02 0.02 0.02 0.01 0.01 0.01 0.02 0.02 0.02 0.02 0.01 0.01 0.01 0.01 0.01 0.01 0.01 0.01 0.01 0.01 0.01 0.01 0.01 0.01 0.01 0.01 0.01 0.01 0.02 0.02 0.02 0.03
0.02 0.02 0.02 0.02 0.02 0.02 0.02 0.02 0.01 0.01 0.01 0.02 0.02 0.03 0.03 0.02 0.02 0.02 0.02 0.02 0.02 0.01 0.01 0.01 0.01 0.01 0.01 0.01 0.01 0.01 0.01 0.01 0.01 0.01 0.01 0.01 0.02 0.02 0.02 0.02 0.03 0.02 0.02
0.02 0.01 0.01 0.02 0.02 0.02 0.02 0.02 0.02 0.02 0.01 0.02 0.02 0.02 0.02 0.03 0.03 0.04 0.05 0.04 0.03 0.02 0.01 0.01 0.01 0.01 0.01 0.01 0.01 0.01 0.01 0.01 0.02 0.01 0.01 0.02 0.03 0.03 0.03 0.03 0.03 0.03 0.02
0.01 0.01 0.02 0.02 0.03 0.03 0.02 0.02 0.02 0.02 0.01 0.01 0.01 0.02 0.03 0.02 0.02 0.02 0.03 0.04 0.04 0.03 0.02 0.01 0.01 0.01 0.01 0.01 0.01 0.01 0.01 0.01 0.01 0.01 0.01 0.01 0.02 0.02 0.02 0.02 0.02 0.04 0.03
0.02 0.02 0.02 0.02 0.04 0.04 0.03 0.02 0.02 0.02 0.01 0.01 0.01 0.01 0.02 0.02 0.02 0.02 0.02 0.02 0.02 0.02 0.02 0.01 0.01 0.01 0.01 0.01 0.01 0.02 0.01 0.01 0.01 0.01 0.01 0.01 0.01 0.01 0.01 0.01 0.02 0.03 0.03
0.02 0.03 0.03 0.04 0.05 0.05 0.04 0.03 0.02 0.02 0.02 0.01 0.01 0.02 0.02 0.01 0.01 0.01 0.02 0.02 0.02 0.01 0.01 0.01 0.01 0.01 0.01 0.02 0.02 0.02 0.01 0.00 0.00 0.00 0.00 0.01 0.01 0.02 0.01 0.01 0.01 0.02 0.02
0.02 0.02 0.03 0.05 0.05 0.05 0.05 0.04 0.04 0.03 0.02 0.02 0.02 0.02 0.02 0.02 0.02 0.02 0.01 0.01 0.01 0.01 0.01 0.01 0.01 0.01 0.02 0.02 0.01 0.01 0.01 0.01 0.01 0.01 0.01 0.01 0.01 0.01 0.01 0.01 0.01 0.01 0.01
0.01 0.01 0.02 0.03 0.03 0.04 0.05 0.06 0.06 0.04 0.03 0.03 0.03 0.03 0.04 0.03 0.04 0.03 0.02 0.02 0.01 0.01 0.01 0.01 0.01 0.01 0.01 0.01 0.01 0.00 0.00 0.00 0.01 0.01 0.01 0.01 0.01 0.01 0.01 0.01 0.01 0.01 0.01
0.01 0.01 0.02 0.03 0.02 0.02 0.03 0.06 0.08 0.09 0.07 0.06 0.05 0.05 0.05 0.06 0.06 0.05 0.04 0.03 0.02 0.02 0.01 0.01 0.01 0.01 0.01 0.01 0.01 0.01 0.01 0.00 0.00 0.00 0.01 0.01 0.01 0.00 0.01 0.01 0.01 0.01 0.01
MSLP
1011.66 1012.49 1013.22 1013.81 1014.23 1014.46 1014.51 1014.40 1014.18 1013.92 1013.66 1013.45 1013.33 1013.32 1013.43 1013.64 1013.93 1014.27 1014.65 1015.04 1015.41 1015.76 1016.08 1016.35 1016.58 1016.77 1016.92 1017.02 1017.08 1017.11 1017.10 1017.05 1016.96 1016.83 1016.65 1016.42 1016.14 1015.83 1015.49 1015.13 1014.79 1014.49 1014.23
1011.60 1012.40 1013.12 1013.73 1014.19 1014.48 1014.60 1014.59 1014.47 1014.30 1014.12 1013.99 1013.93 1013.97 1014.12 1014.35 1014.65 1015.00 1015.37 1015.73 1016.07 1016.37 1016.62 1016.82 1016.97 1017.07 1017.14 1017.19 1017.21 1017.22 1017.21 1017.19 1017.14 1017.05 1016.93 1016.75 1016.51 1016.22 1015.90 1015.54 1015.19 1014.86 1014.58
1011.64 1012.41 1013.13 1013.74 1014.23 1014.57 1014.76 1014.83 1014.80 1014.71 1014.62 1014.56 1014.57 1014.66 1014.84 1015.10 1015.43 1015.79 1016.16 1016.51 1016.83 1017.09 1017.29 1017.43 1017.52 1017.56 1017.57 1017.56 1017.54 1017.53 1017.52 1017.51 1017.50 1017.45 1017.37 1017.24 1017.04 1016.78 1016.48 1016.13 1015.77 1015.42 1015.12
1011.78 1012.53 1013.23 1013.85 1014.36 1014.73 1014.98 1015.11 1015.16 1015.15 1015.13 1015.14 1015.21 1015.35 1015.56 1015.85 1016.19 1016.57 1016.94 1017.29 1017.60 1017.84 1018.02 1018.12 1018.17 1018.17 1018.14 1018.09 1018.05 1018.02 1018.01 1018.00 1018.01 1017.99 1017.95 1017.85 1017.69 1017.46 1017.18 1016.84 1016.48 1016.12 1015.79
1011.97 1012.71 1013.40 1014.02 1014.54 1014.95 1015.24 1015.43 1015.54 1015.61 1015.66 1015.73 1015.84 1016.02 1016.26 1016.57 1016.92 1017.29 1017.67 1018.01 1018.32 1018.56 1018.72 1018.82 1018.85 1018.84 1018.79 1018.72 1018.66 1018.62 1018.60 1018.61 1018.62 1018.62 1018.60 1018.53 1018.40 1018.20 1017.93 1017.61 1017.25 1016.89 1016.54
1012.18 1012.91 1013.60 1014.22 1014.76 1015.19 1015.53 1015.78 1015.95 1016.08 1016.19 1016.31 1016.47 1016.67 1016.92 1017.23 1017.57 1017.94 1018.30 1018.65 1018.95 1019.19 1019.36 1019.47 1019.51 1019.50 1019.45 1019.39 1019.33 1019.28 1019.26 1019.26 1019.27 1019.28 1019.27 1019.22 1019.11 1018.93 1018.68 1018.38 1018.03 1017.66 1017.30
1012.38 1013.10 1013.79 1014.42 1014.98 1015.44 1015.83 1016.14 1016.38 1016.57 1016.75 1016.92 1017.10 1017.32 1017.57 1017.86 1018.18 1018.52 1018.86 1019.19 1019.49 1019.73 1019.92 1020.05 1020.11 1020.13 1020.11 1020.06 1020.01 1019.96 1019.94 1019.93 1019.94 1019.95 1019.93 1019.89 1019.79 1019.62 1019.40 1019.11 1018.77 1018.40 1018.03
1012.56 1013.28 1013.97 1014.61 1015.19 1015.71 1016.15 1016.53 1016.84 1017.11 1017.34 1017.56 1017.77 1017.99 1018.23 1018.49 1018.77 1019.07 1019.38 1019.68 1019.96 1020.21 1020.42 1020.57 1020.68 1020.73 1020.74 1020.72 1020.69 1020.66 1020.63 1020.62 1020.61 1020.61 1020.58 1020.53 1020.43 1020.28 1020.07 1019.79 1019.47 1019.11 1018.74
1012.74 1013.46 1014.16 1014.82 1015.44 1016.01 1016.52 1016.97 1017.36 1017.71 1018.00 1018.26 1018.50 1018.72 1018.94 1019.16 1019.40 1019.65 1019.91 1020.18 1020.44 1020.69 1020.91 1021.09 1021.24 1021.33 1021.39 1021.41 1021.40 1021.38 1021.35 1021.33 1021.30 1021.28 1021.24 1021.17 1021.07 1020.92 1020.71 1020.45 1020.13 1019.78 1019.41
1012.97 1013.69 1014.40 1015.09 1015.75 1016.38 1016.96 1017.49 1017.96 1018.38 1018.74 1019.04 1019.30 1019.52 1019.71 1019.90 1020.08 1020.28 1020.49 1020.72 1020.97 1021.21 1021.45 1021.66 1021.84 1021.98 1022.08 1022.13 1022.15 1022.14 1022.11 1022.07 1022.03 1021.98 1021.91 1021.83 1021.71 1021.55 1021.34 1021.09 1020.78 1020.44 1020.07
1013.31 1014.02 1014.74 1015.46 1016.16 1016.85 1017.50 1018.10 1018.65 1019.13 1019.55 1019.89 1020.16 1020.38 1020.55 1020.70 1020.84 1020.99 1021.16 1021.36 1021.58 1021.82 1022.06 1022.30 1022.51 1022.69 1022.82 1022.90 1022.94 1022.94 1022.91 1022.86 1022.79 1022.71 1022.61 1022.50 1022.36 1022.19 1021.97 1021.72 1021.42 1021.08 1020.72
1013.79 1014.50 1015.23 1015.97 1016.71 1017.44 1018.14 1018.80 1019.41 1019.94 1020.40 1020.77 1021.05 1021.27 1021.42 1021.55 1021.66 1021.77 1021.91 1022.08 1022.28 1022.51 1022.76 1023.01 1023.24 1023.44 1023.60 1023.70 1023.75 1023.75 1023.71 1023.64 1023.55 1023.44 1023.31 1023.17 1023.00 1022.81 1022.59 1022.33 1022.03 1021.69 1021.32
1014.42 1015.13 1015.87 1016.62 1017.39 1018.14 1018.88 1019.57 1020.21 1020.77 1021.25 1021.63 1021.92 1022.13 1022.28 1022.38 1022.47 1022.57 1022.68 1022.84 1023.03 1023.25 1023.50 1023.75 1023.99 1024.20 1024.36 1024.47 1024.52 1024.51 1024.46 1024.37 1024.26 1024.12 1023.97 1023.79 1023.61 1023.40 1023.16 1022.88 1022.58 1022.24 1021.87
1015.21 1015.92 1016.65 1017.40 1018.17 1018.93 1019.66 1020.36 1021.00 1021.56 1022.03 1022.41 1022.70 1022.90 1023.04 1023.15 1023.23 1023.32 1023.43 1023.58 1023.76 1023.98 1024.22 1024.46 1024.69 1024.89 1025.05 1025.14 1025.18 1025.16 1025.09 1024.99 1024.85 1024.69 1024.52 1024.33 1024.12 1023.89 1023.64 1023.35 1023.04 1022.69 1022.31
1016.11 1016.81 1017.53 1018.26 1019.01 1019.74 1020.45 1021.12 1021.72 1022.26 1022.70 1023.06 1023.33 1023.53 1023.67 1023.78 1023.87 1023.97 1024.08 1024.23 1024.42 1024.62 1024.85 1025.07 1025.28 1025.45 1025.57 1025.65 1025.66 1025.62 1025.54 1025.42 1025.27 1025.10 1024.92 1024.72 1024.50 1024.26 1024.00 1023.71 1023.39 1023.03 1022.63
1017.06 1017.74 1018.43 1019.13 1019.83 1020.52 1021.17 1021.78 1022.33 1022.81 1023.22 1023.54 1023.79 1023.98 1024.13 1024.24 1024.35 1024.46 1024.60 1024.75 1024.93 1025.13 1025.33 1025.52 1025.69 1025.82 1025.91 1025.94 1025.93 1025.87 1025.78 1025.65 1025.50 1025.33 1025.15 1024.96 1024.74 1024.51 1024.25 1023.95 1023.62 1023.25 1022.84
1017.97 1018.63 1019.29 1019.94 1020.59 1021.21 1021.79 1022.33 1022.81 1023.22 1023.57 1023.86 1024.08 1024.26 1024.41 1024.55 1024.68 1024.81 1024.96 1025.12 1025.30 1025.48 1025.65 1025.80 1025.92 1026.01 1026.05 1026.05 1026.01 1025.94 1025.83 1025.71 1025.57 1025.41 1025.25 1025.07 1024.87 1024.65 1024.39 1024.10 1023.77 1023.39 1022.96
1018.79 1019.42 1020.04 1020.65 1021.23 1021.78 1022.29 1022.75 1023.15 1023.50 1023.79 1024.03 1024.24 1024.42 1024.57 1024.72 1024.88 1025.04 1025.20 1025.37 1025.54 1025.69 1025.83 1025.94 1026.02 1026.06 1026.06 1026.02 1025.96 1025.87 1025.77 1025.65 1025.53 1025.40 1025.26 1025.11 1024.93 1024.72 1024.48 1024.19 1023.85 1023.47 1023.03
1019.48 1020.08 1020.66 1021.22 1021.75 1022.23 1022.67 1023.06 1023.39 1023.68 1023.92 1024.13 1024.32 1024.49 1024.66 1024.83 1025.00 1025.18 1025.36 1025.53 1025.69 1025.83 1025.93 1026.01 1026.04 1026.04 1026.00 1025.94 1025.86 1025.77 1025.67 1025.57 1025.47 1025.37 1025.26 1025.13 1024.97 1024.78 1024.54 1024.26 1023.92 1023.52 1023.07
1020.03 1020.60 1021.14 1021.66 1022.14 1022.58 1022.96 1023.29 1023.58 1023.82 1024.03 1024.22 1024.39 1024.57 1024.74 1024.93 1025.12 1025.31 1025.49 1025.67 1025.81 1025.93 1026.01 1026.05 1026.05 1026.01 1025.95 1025.88 1025.79 1025.70 1025.62 1025.54 1025.46 1025.38 1025.29 1025.17 1025.03 1024.85 1024.61 1024.32 1023.97 1023.56 1023.10
1020.46 1021.00 1021.52 1022.01 1022.46 1022.85 1023.20 1023.50 1023.75 1023.97 1024.16 1024.34 1024.51 1024.68 1024.87 1025.06 1025.26 1025.46 1025.64 1025.81 1025.94 1026.04 1026.10 1026.11 1026.09 1026.04 1025.97 1025.89 1025.81 1025.73 1025.66 1025.59 1025.53 1025.46 1025.38 1025.27 1025.12 1024.93 1024.68 1024.38 1024.01 1023.59 1023.10
1020.82 1021.34 1021.84 1022.31 1022.74 1023.12 1023.45 1023.73 1023.97 1024.18 1024.36 1024.53 1024.70 1024.88 1025.06 1025.26 1025.45 1025.64 1025.82 1025.97 1026.10 1026.18 1026.22 1026.22 1026.20 1026.14 1026.07 1026.00 1025.93 1025.86 1025.80 1025.74 1025.68 1025.61 1025.52 1025.40 1025.23 1025.01 1024.74 1024.40 1024.01 1023.56 1023.06
1021.19 1021.68 1022.16 1022.62 1023.04 1023.42 1023.74 1024.02 1024.26 1024.47 1024.65 1024.82 1024.98 1025.15 1025.33 1025.51 1025.69 1025.86 1026.02 1026.16 1026.26 1026.33 1026.36 1026.36 1026.33 1026.29 1026.23 1026.17 1026.11 1026.06 1026.00 1025.95 1025.88 1025.79 1025.68 1025.52 1025.31 1025.05 1024.74 1024.37 1023.94 1023.47 1022.94
1021.62 1022.09 1022.55 1023.00 1023.41 1023.78 1024.11 1024.39 1024.63 1024.83 1025.01 1025.17 1025.33 1025.48 1025.63 1025.79 1025.94 1026.08 1026.21 1026.31 1026.39 1026.45 1026.47 1026.47 1026.46 1026.43 1026.39 1026.35 1026.30 1026.26 1026.21 1026.14 1026.06 1025.94 1025.79 1025.59 1025.33 1025.02 1024.66 1024.25 1023.79 1023.29 1022.74
1022.16 1022.60 1023.04 1023.46 1023.86 1024.23 1024.55 1024.82 1025.06 1025.25 1025.42 1025.56 1025.70 1025.82 1025.93 1026.05 1026.16 1026.25 1026.34 1026.41 1026.47 1026.50 1026.52 1026.52 1026.52 1026.50 1026.48 1026.46 1026.43 1026.39 1026.34 1026.26 1026.15 1026.01 1025.81 1025.56 1025.26 1024.90 1024.50 1024.05 1023.56 1023.03 1022.47
1022.80 1023.21 1023.62 1024.02 1024.39 1024.73 1025.04 1025.30 1025.51 1025.69 1025.83 1025.95 1026.04 1026.12 1026.19 1026.26 1026.31 1026.36 1026.40 1026.43 1026.45 1026.46 1026.46 1026.47 1026.46 1026.46 1026.46 1026.45 1026.43 1026.40 1026.34 1026.25 1026.12 1025.94 1025.71 1025.42 1025.08 1024.69 1024.25 1023.77 1023.26 1022.72 1022.16
Thickness
5718 5715 5713 5711 5708 5706 5703 5701 5700 5699 5697 5695 5694 5692 5691 5689 5688 5686 5684 5682 5680 5678 5676 5675 5673 5673 5673 5672 5671 5671 5670 5669 5668 5670 5671 5672 5673 5674 5675 5675 5675 5675 5675
5713 5711 5709 5706 5704 5702 5700 5698 5696 5694 5693 5691 5689 5687 5686 5684 5683 5681 5678 5677 5674 5672 5671 5669 5668 5669 5668 5667 5666 5666 5665 5664 5663 5663 5665 5666 5667 5667 5668 5668 5669 5669 5669
5709 5706 5703 5701 5699 5697 5695 5693 5691 5689 5687 5686 5684 5682 5681 5679 5677 5676 5674 5672 5670 5668 5666 5665 5664 5663 5663 5662 5661 5661 5660 5660 5659 5658 5659 5659 5660 5661 5660 5661 5662 5662 5663
5703 5701 5698 5696 5694 5692 5690 5688 5686 5685 5683 5681 5680 5678 5676 5675 5673 5671 5669 5667 5664 5662 5661 5660 5660 5659 5659 5658 5657 5656 5655 5654 5653 5653 5653 5653 5653 5654 5654 5653 5654 5655 5655
5698 5696 5693 5691 5689 5687 5685 5684 5682 5680 5678 5676 5674 5673 5672 5671 5669 5666 5664 5662 5659 5657 5657 5656 5655 5655 5655 5654 5653 5651 5650 5649 5648 5647 5647 5647 5648 5647 5647 5647 5647 5648 5649
5693 5691 5689 5686 5684 5682 5681 5680 5677 5675 5673 5671 5669 5667 5666 5666 5664 5662 5660 5658 5655 5653 5652 5651 5651 5651 5650 5649 5649 5647 5646 5644 5643 5642 5642 5641 5642 5642 5641 5641 5640 5641 5643
5687 5685 5683 5682 5680 5678 5677 5675 5673 5670 5668 5665 5664 5662 5661 5660 5659 5657 5656 5653 5651 5649 5647 5647 5647 5646 5645 5644 5643 5642 5641 5640 5639 5638 5637 5637 5637 5637 5636 5636 5635 5635 5636
5682 5680 5679 5677 5675 5673 5671 5669 5667 5665 5662 5660 5659 5657 5655 5655 5653 5652 5650 5648 5647 5645 5644 5642 5641 5640 5640 5639 5638 5636 5635 5634 5634 5633 5633 5633 5632 5632 5631 5630 5629 5629 5630
5676 5675 5674 5673 5671 5668 5666 5664 5662 5659 5657 5655 5654 5652 5650 5649 5648 5646 5645 5643 5641 5640 5639 5638 5636 5635 5634 5633 5632 5630 5629 5629 5629 5628 5627 5627 5626 5626 5625 5624 5623 5623 5624
5670 5670 5669 5668 5666 5664 5661 5659 5657 5654 5652 5650 5648 5646 5645 5644 5642 5641 5639 5638 5636 5635 5634 5632 5631 5630 5629 5627 5626 5624 5623 5623 5622 5622 5621 5620 5620 5620 5619 5618 5617 5617 5617
5665 5664 5663 5662 5661 5659 5656 5654 5651 5649 5646 5644 5643 5641 5639 5638 5636 5635 5634 5632 5630 5629 5628 5627 5626 5625 5623 5622 5620 5619 5618 5617 5615 5614 5613 5613 5613 5613 5612 5611 5610 5610 5609
5658 5657 5656 5655 5654 5653 5650 5647 5645 5643 5640 5638 5636 5634 5633 5632 5631 5630 5628 5627 5626 5624 5623 5622 5621 5620 5618 5617 5615 5614 5612 5610 5609 5608 5606 5606 5606 5606 5606 5605 5604 5603 5603
5650 5649 5648 5647 5646 5644 5642 5640 5638 5636 5634 5632 5630 5629 5628 5627 5625 5624 5623 5621 5620 5619 5618 5616 5615 5613 5612 5611 5610 5608 5606 5605 5603 5601 5600 5600 5599 5598 5598 5597 5597 5596 5596
5642 5641 5640 5639 5638 5636 5635 5633 5631 5629 5627 5626 5625 5624 5622 5621 5620 5619 5617 5616 5614 5613 5612 5610 5608 5607 5606 5605 5604 5602 5601 5599 5597 5595 5594 5593 5592 5591 5591 5590 5590 5589 5589
5635 5634 5632 5631 5630 5628 5627 5625 5625 5623 5622 5621 5620 5619 5617 5616 5615 5613 5612 5610 5609 5608 5606 5604 5602 5601 5599 5598 5597 5596 5595 5593 5591 5590 5588 5587 5586 5585 5584 5583 5583 5582 5582
5627 5626 5625 5623 5622 5621 5620 5618 5617 5617 5616 5615 5614 5613 5612 5610 5609 5607 5605 5604 5602 5600 5598 5597 5596 5595 5594 5593 5592 5591 5589 5588 5586 5585 5583 5581 5581 5580 5579 5578 5577 5576 5576
5619 5618 5617 5616 5615 5614 5613 5612 5611 5610 5609 5607 5607 5606 5604 5603 5602 5600 5598 5596 5594 5592 5591 5591 5590 5589 5588 5587 5586 5585 5584 5583 5581 5579 5578 5577 5575 5575 5574 5573 5572 5571 5571
5612 5611 5610 5609 5608 5607 5606 5605 5605 5603 5602 5601 5599 5598 5597 5597 5595 5594 5592 5589 5588 5586 5586 5586 5585 5584 5583 5582 5581 5580 5579 5577 5576 5574 5573 5572 5570 5570 5569 5569 5568 5567 5567
5604 5603 5603 5602 5601 5601 5599 5598 5597 5596 5594 5593 5593 5592 5591 5590 5588 5587 5585 5583 5583 5582 5581 5580 5580 5579 5578 5577 5576 5575 5573 5572 5571 5569 5568 5567 5566 5565 5564 5564 5563 5562 5561
5598 5597 5596 5595 5595 5594 5593 5592 5590 5589 5587 5586 5586 5585 5584 5583 5582 5580 5578 5578 5578 5577 5577 5576 5575 5574 5573 5572 5570 5569 5568 5567 5566 5565 5564 5562 5561 5560 5560 5559 5558 5558 5558
5591 5590 5589 5589 5589 5588 5587 5586 5585 5583 5582 5581 5580 5580 5578 5577 5576 5575 5574 5572 5572 5572 5571 5571 5570 5569 5567 5566 5565 5564 5563 5562 5561 5560 5559 5557 5557 5556 5555 5554 5554 5554 5553
5585 5584 5584 5583 5583 5582 5581 5581 5579 5578 5577 5576 5575 5574 5571 5570 5570 5570 5569 5568 5567 5566 5566 5565 5564 5563 5562 5562 5561 5560 5559 5558 5556 5555 5554 5553 5552 5551 5550 5550 5549 5549 5549
5579 5579 5578 5578 5577 5576 5575 5574 5573 5573 5572 5571 5570 5568 5567 5565 5565 5565 5564 5563 5562 5561 5560 5559 5558 5557 5557 5556 5556 5555 5554 5553 5552 5550 5549 5548 5547 5546 5546 5546 5545 5544 5545
5574 5574 5573 5572 5571 5570 5569 5568 5568 5567 5567 5565 5564 5563 5562 5561 5560 5560 5559 5558 5557 5556 5555 5554 5553 5553 5552 5551 5551 5549 5548 5547 5546 5545 5544 5544 5543 5542 5541 5540 5540 5540 5540
5569 5569 5568 5567 5566 5565 5564 5563 5562 5562 5562 5561 5559 5558 5557 5556 5555 5554 5554 5553 5552 5551 5550 5549 5549 5548 5547 5547 5546 5545 5544 5543 5541 5540 5539 5538 5538 5537 5536 5536 5535 5535 5535
5564 5563 5563 5563 5562 5560 5559 5558 5558 5558 5557 5556 5555 5553 5552 5551 5550 5549 5548 5548 5547 5547 5545 5545 5544 5543 5542 5542 5541 5540 5539 5538 5536 5535 5534 5533 5533 5532 5531 5531 5530 5530 5530